EW9423 Weather Reports


time (UTC)temp
F
wind
direction
speed
knots
gust
knots
rain 1hr
in
rain 24hr
in
rain mn
in
humidity
%
barometer
mb
20260505174015 50 323 0.9 3.5 0.00 0.00 0.00 49 1013.1
20260505173036 50 259 0.9 3.5 0.00 0.00 0.00 51 1013.2
20260505172017 50 277 0.9 5.2 0.00 0.00 0.00 56 1013.3
20260505171037 50 314 2.6 5.2 0.00 0.00 0.00 57 1013.3
20260505170017 50 308 1.7 4.3 0.00 0.00 0.00 53 1013.3
20260505165017 50 303 1.7 7.0 0.00 0.00 0.00 51 1013.2
20260505164017 51 318 1.7 5.2 0.00 0.00 0.00 53 1013.3
20260505163017 51 322 1.7 4.3 0.00 0.00 0.00 51 1013.2
20260505162016 51 313 1.7 4.3 0.00 0.00 0.00 50 1013.2
20260505161017 51 314 1.7 7.8 0.00 0.00 0.00 49 1013.2
20260505153017 54 321 3.5 8.7 0.00 0.00 0.00 37 1013.1
20260505152017 55 322 4.3 9.6 0.00 0.00 0.00 37 1013.0
20260505151057 55 321 3.5 8.7 0.00 0.00 0.00 36 1013.0
20260505125017 57 311 1.7 5.2 0.00 0.00 0.00 34 1013.1
20260505124016 56 324 1.7 7.0 0.00 0.00 0.00 36 1013.1
20260505123016 57 324 2.6 8.7 0.00 0.00 0.00 37 1013.0
20260505122016 57 318 2.6 7.8 0.00 0.00 0.00 38 1013.1
20260505121017 57 322 1.7 8.7 0.00 0.00 0.00 40 1013.1
20260505120016 57 325 3.5 10.4 0.00 0.00 0.00 39 1013.1
20260505115017 57 312 2.6 7.8 0.00 0.00 0.00 42 1013.1
20260505114017 57 323 2.6 7.8 0.00 0.00 0.00 44 1013.1
20260505113016 57 313 3.5 11.3 0.00 0.00 0.00 44 1013.2
20260505112017 57 307 2.6 7.0 0.00 0.00 0.00 45 1013.1
20260505111036 57 300 2.6 9.6 0.00 0.00 0.00 42 1013.1
20260505102017 56 324 2.6 7.0 0.00 0.00 0.00 36 1012.9
20260505101037 57 306 1.7 7.0 0.00 0.00 0.00 33 1012.9
20260505100016 56 325 0.0 4.3 0.00 0.00 0.00 43 1012.9
20260505095037 56 255 1.7 6.1 0.00 0.00 0.00 42 1012.8
20260505094016 56 294 0.9 3.5 0.00 0.00 0.00 45 1012.8
20260505093016 56 253 1.7 4.3 0.00 0.00 0.00 46 1012.9
20260505092036 54 234 1.7 5.2 0.00 0.00 0.00 47 1012.9
20260505091016 54 318 1.7 7.0 0.00 0.00 0.00 49 1013.0
20260505090016 54 327 1.7 4.3 0.00 0.00 0.00 49 1013.0
20260505085016 53 314 1.7 5.2 0.00 0.00 0.00 51 1013.0
20260505084037 53 313 2.6 7.0 0.00 0.00 0.00 52 1013.0
20260505083016 52 325 1.7 7.0 0.00 0.00 0.00 53 1013.1
20260505082016 52 308 3.5 6.1 0.00 0.00 0.00 52 1013.0
20260505081017 52 335 0.9 4.3 0.00 0.00 0.00 55 1012.9
20260505080016 52 327 3.5 8.7 0.00 0.00 0.00 54 1012.8
20260505075036 52 319 1.7 7.0 0.00 0.00 0.00 54 1012.7
20260505074016 51 321 1.7 4.3 0.00 0.00 0.00 55 1012.7
20260505073016 51 321 2.6 7.0 0.00 0.00 0.00 56 1012.7
20260505072016 50 326 3.5 9.6 0.00 0.00 0.00 57 1012.8
20260505071016 50 317 1.7 7.8 0.00 0.00 0.00 58 1012.8
20260505070036 50 323 3.5 7.8 0.00 0.00 0.00 58 1012.8
20260505065016 50 322 2.6 7.0 0.00 0.00 0.00 60 1012.8
20260505064016 49 330 2.6 7.8 0.00 0.00 0.00 61 1012.8
20260505063016 48 320 2.6 7.8 0.00 0.00 0.00 63 1012.8
20260505062016 48 319 2.6 7.8 0.00 0.00 0.00 63 1012.8
20260505061036 48 318 2.6 7.0 0.00 0.00 0.00 65 1012.7
20260505060016 48 319 3.5 7.8 0.00 0.00 0.00 67 1012.7
20260505055016 48 319 2.6 6.1 0.00 0.00 0.00 69 1012.6
20260505054036 47 319 2.6 7.0 0.00 0.00 0.00 72 1012.6
20260505053016 46 307 1.7 6.1 0.00 0.00 0.00 77 1012.5
20260505052016 45 300 0.9 7.0 0.00 0.00 0.00 79 1012.5
20260505051016 44 315 2.6 7.8 0.00 0.00 0.00 82 1012.4
20260505041016 43 292 1.7 6.1 0.00 0.00 0.00 86 1012.0
20260505040016 43 292 1.7 6.1 0.00 0.00 0.00 85 1012.0
20260505035016 43 298 0.9 7.0 0.00 0.00 0.00 85 1011.9
20260505034016 43 285 1.7 6.1 0.00 0.00 0.00 85 1011.9
20260505033016 43 289 1.7 5.2 0.00 0.00 0.00 84 1011.9
20260505032016 43 285 1.7 6.1 0.00 0.00 0.00 84 1011.9
20260505031036 44 272 1.7 5.2 0.00 0.00 0.00 85 1011.8
20260505030036 44 263 0.9 4.3 0.00 0.00 0.00 86 1011.7
20260505025016 45 257 2.6 6.1 0.00 0.00 0.00 86 1011.7
20260505024016 45 259 1.7 7.0 0.00 0.00 0.00 86 1011.7
20260505023016 45 261 3.5 7.8 0.00 0.00 0.00 85 1011.8
20260505022016 46 268 2.6 7.0 0.00 0.00 0.00 86 1011.9
20260505021015 46 265 2.6 7.8 0.00 0.00 0.00 86 1012.0
20260505020016 45 271 1.7 7.0 0.00 0.00 0.00 87 1012.0
20260505015016 45 254 1.7 5.2 0.00 0.00 0.00 86 1012.0
20260505014015 45 258 2.6 7.0 0.00 0.01 0.00 87 1012.0
20260505013016 45 251 1.7 7.0 0.00 0.01 0.00 87 1011.9
20260505012015 44 252 2.6 9.6 0.00 0.02 0.00 87 1012.1
20260505011016 44 246 0.0 4.3 0.00 0.02 0.00 87 1012.2
20260505010015 44 249 1.7 7.0 0.00 0.02 0.00 86 1012.1
20260505005015 44 245 1.7 4.3 0.00 0.02 0.00 85 1012.1
20260505004016 45 249 1.7 6.1 0.00 0.03 0.00 84 1012.2
20260505003016 45 255 2.6 7.0 0.00 0.03 0.00 84 1012.2
20260505002015 45 254 3.5 8.7 0.00 0.04 0.00 84 1012.2
20260505001015 45 256 4.3 7.8 0.00 0.04 0.00 84 1012.2
20260505000015 46 257 3.5 8.7 0.00 0.04 0.00 83 1012.2
20260504235016 46 264 2.6 10.4 0.00 0.05 0.00 83 1012.2
20260504234016 46 256 4.3 9.6 0.00 0.05 0.00 82 1012.2
20260504233016 47 259 4.3 11.3 0.00 0.05 0.00 83 1012.1
20260504232016 47 265 3.5 8.7 0.00 0.05 0.00 83 1012.2
20260504231018 47 260 3.5 9.6 0.00 0.05 0.00 82 1012.3
20260504230018 47 256 4.3 9.6 0.00 0.05 0.00 83 1012.3
20260504225038 46 259 3.5 9.6 0.00 0.05 0.00 82 1012.3
20260504224018 46 258 3.5 11.3 0.00 0.05 0.00 82 1012.4
20260504223038 46 265 4.3 11.3 0.00 0.06 0.00 82 1012.3
20260504222018 46 254 4.3 8.7 0.00 0.06 0.00 83 1012.4
20260504221018 46 274 2.6 7.8 0.00 0.06 0.00 82 1012.4
20260504220018 46 252 5.2 10.4 0.00 0.07 0.00 81 1012.5
20260504215018 46 259 3.5 9.6 0.00 0.08 0.08 82 1012.5
20260504214018 47 260 2.6 7.8 0.00 0.09 0.08 81 1012.5
20260504213018 47 261 4.3 8.7 0.00 0.09 0.08 80 1012.5
20260504212018 47 258 3.5 7.8 0.00 0.11 0.08 79 1012.5
20260504211018 47 257 3.5 8.7 0.00 0.12 0.08 78 1012.5
20260504210018 48 264 4.3 7.8 0.00 0.13 0.08 77 1012.5
20260504205018 48 252 5.2 12.2 0.00 0.13 0.08 76 1012.6
20260504204017 48 264 6.1 11.3 0.00 0.14 0.08 76 1012.6
20260504203017 47 271 3.5 10.4 0.00 0.14 0.08 78 1012.6
20260504202017 47 280 3.5 10.4 0.00 0.15 0.08 78 1012.7
20260504201017 47 271 2.6 10.4 0.00 0.16 0.08 79 1012.7
20260504200018 47 271 4.3 9.6 0.00 0.16 0.08 79 1012.7
20260504195037 47 276 3.5 7.8 0.00 0.16 0.08 79 1012.7
20260504194018 47 267 3.5 11.3 0.00 0.16 0.08 78 1012.7
20260504193018 48 270 3.5 10.4 0.00 0.16 0.08 78 1012.6
20260504192037 48 276 4.3 9.6 0.00 0.16 0.08 76 1012.6
20260504191017 48 277 3.5 9.6 0.00 0.16 0.08 75 1012.4
20260504190017 49 266 4.3 11.3 0.00 0.16 0.08 74 1012.3
20260504185018 49 265 5.2 10.4 0.00 0.16 0.08 73 1012.3
20260504184017 49 268 6.1 14.8 0.00 0.16 0.08 72 1012.2
20260504183017 50 265 5.2 11.3 0.00 0.16 0.08 71 1012.2
20260504182017 51 263 6.1 11.3 0.00 0.16 0.08 70 1012.2
20260504181017 51 264 6.1 13.0 0.00 0.16 0.08 71 1012.1
20260504180017 51 256 7.0 13.0 0.00 0.16 0.08 70 1012.1
20260504175017 51 260 7.0 14.8 0.00 0.16 0.08 69 1012.2